Temperature
14 14 15 15 15 15 15 15 15 15 15 16 16 16 16 16 16 16 16 16 16 15 15 15 15 15 15 15 15 15 15 14 14 15 15 15 15 15 15 15 15 15 15
14 14 14 14 14 15 15 15 15 15 16 16 16 16 16 16 16 16 16 16 15 15 15 15 15 15 15 15 14 15 14 14 14 15 15 15 15 15 15 14 14 14 14
14 14 14 14 14 15 15 15 15 15 15 16 16 16 16 16 16 16 16 16 15 15 15 15 15 15 15 14 14 14 14 14 14 14 14 14 14 14 14 14 14 14 14
13 13 14 14 14 14 15 15 15 15 15 16 16 16 16 16 16 16 16 16 15 15 15 15 15 15 15 14 14 14 14 14 14 14 14 14 14 14 14 14 14 14 14
13 13 13 13 13 14 14 14 15 15 15 15 16 16 16 16 16 16 16 16 15 15 15 15 15 15 15 14 14 14 14 14 14 14 14 14 14 14 14 14 13 14 14
13 13 13 13 13 13 13 14 14 14 15 15 15 15 15 15 16 16 16 15 15 15 15 15 15 15 15 15 15 14 14 14 14 14 14 14 14 13 13 13 13 13 13
12 12 12 13 13 13 13 13 13 14 14 14 15 15 15 15 15 16 16 15 15 15 15 15 15 15 15 15 14 14 14 14 14 14 14 13 13 13 13 13 13 13 13
12 12 12 12 12 12 13 13 13 13 13 13 14 14 14 14 15 15 15 15 15 15 15 15 15 15 15 15 14 14 14 14 14 14 14 13 13 13 13 13 13 13 13
12 12 12 12 12 12 12 12 12 12 12 13 13 13 13 14 14 15 15 15 15 15 15 15 15 15 15 14 14 14 14 14 14 14 13 13 13 13 13 13 13 12 12
12 12 12 11 12 12 12 12 12 12 12 12 12 12 13 13 14 14 14 14 14 14 14 14 15 15 14 14 14 14 14 14 13 13 13 13 13 13 13 13 12 12 12
12 12 12 11 11 11 11 11 11 11 11 12 12 12 12 12 13 13 14 14 14 14 14 14 14 14 14 14 14 14 14 13 13 13 13 13 12 12 12 12 12 12 12
12 12 12 11 11 11 11 11 11 11 11 11 11 11 11 11 12 12 13 13 13 13 13 13 14 14 14 14 13 13 13 13 13 12 12 12 12 12 12 12 12 12 11
13 12 12 12 11 11 11 11 11 11 11 11 10 11 11 11 11 12 12 12 13 13 13 13 13 13 13 13 13 13 13 12 12 12 12 12 12 12 11 11 11 11 11
13 13 12 12 11 11 11 11 11 11 11 11 10 11 11 11 11 11 12 12 12 12 12 12 12 12 12 12 12 12 12 12 12 11 11 11 11 11 11 11 11 11 11
13 13 12 12 12 11 11 11 11 11 11 11 11 11 11 11 11 11 11 12 12 12 12 12 12 12 12 11 11 11 11 11 11 11 11 11 10 10 10 10 10 10 10
13 13 12 12 12 11 11 11 10 10 10 10 10 11 11 11 11 11 11 11 11 11 11 11 11 11 11 11 11 11 10 10 10 10 10 10 10 10 9 9 9 9 9
13 13 12 12 12 11 11 11 10 10 10 10 10 10 10 10 10 10 10 10 11 11 11 11 10 10 10 10 10 10 10 10 10 10 9 9 9 9 9 9 8 8 8
13 13 12 12 12 11 11 11 10 10 10 10 10 10 10 10 10 10 10 10 10 10 10 10 10 10 10 10 10 10 9 9 9 9 9 9 8 8 8 8 7 7 7
13 12 12 12 12 11 11 11 11 10 10 10 10 10 10 10 10 10 10 10 10 10 9 9 9 9 9 9 9 9 9 9 9 8 8 8 8 8 7 7 7 7 7
13 13 12 12 12 12 11 11 11 10 10 10 10 10 9 9 9 9 9 9 9 9 9 9 9 9 9 9 9 8 8 8 8 8 8 8 7 7 7 7 7 7 6
13 13 12 12 12 12 11 11 11 11 10 10 10 10 9 9 9 9 9 9 9 9 9 9 9 9 9 9 8 8 8 8 8 8 7 7 7 7 6 6 6 6 6
13 13 13 12 12 12 11 11 11 11 10 10 10 9 9 9 9 9 9 9 8 8 9 9 9 9 9 8 8 8 8 8 8 7 7 6 6 6 6 6 6 6 6
13 13 13 12 12 12 11 11 11 11 10 10 10 9 9 9 9 9 8 8 8 8 9 9 9 9 8 8 8 8 8 8 8 7 7 6 6 6 6 6 6 6 6
13 13 13 13 12 12 12 11 11 11 11 10 10 10 10 9 9 9 9 9 9 9 9 9 9 8 9 9 9 8 8 8 8 7 7 6 6 6 6 6 5 5 5
13 13 13 13 12 12 12 12 11 11 11 11 10 10 10 10 9 9 9 9 9 9 9 9 9 8 8 9 9 9 8 8 8 7 6 6 6 6 5 5 5 5 5
13 13 13 13 12 12 12 12 12 11 11 11 10 10 10 10 10 9 9 9 9 9 9 9 9 9 9 9 9 9 8 8 8 7 7 6 6 6 5 5 5 5 5
Wind_Speed
9 7 6 5 4 3 2 2 2 2 3 4 4 4 4 5 5 4 4 4 3 4 5 5 5 4 3 3 3 3 4 4 4 4 2 2 2 2 2 4 5 6 13
9 8 8 6 5 5 4 3 2 2 2 3 3 3 3 4 5 6 5 5 5 5 5 4 4 4 4 3 3 3 4 4 4 4 3 2 3 3 3 3 3 6 7
8 8 7 7 6 6 6 6 5 3 2 2 2 2 3 4 4 5 6 6 6 4 4 4 3 3 3 3 3 3 3 3 3 3 3 2 2 2 2 3 4 4 6
8 8 8 7 6 6 6 6 6 5 3 2 1 2 2 2 3 3 4 4 4 3 3 3 3 3 2 2 2 2 2 1 1 2 2 2 2 1 1 2 3 3 3
9 9 9 7 6 6 6 6 6 7 6 5 3 2 2 2 3 3 1 1 2 2 3 3 4 6 6 3 2 2 1 0 0 1 2 1 2 1 2 2 3 3 3
8 9 9 9 9 8 7 7 7 7 7 7 6 4 4 5 7 8 6 4 2 1 2 4 5 6 6 5 4 3 2 1 0 1 1 1 2 3 2 2 2 1 3
8 8 8 9 9 9 9 8 8 8 8 8 7 7 6 7 8 8 8 5 4 2 0 2 3 4 6 4 4 4 3 3 2 0 1 2 2 1 1 1 2 2 3
8 8 8 9 9 9 9 9 8 7 6 6 6 6 5 6 8 8 7 4 4 3 1 1 2 4 3 2 2 3 4 4 4 2 1 2 2 2 1 1 1 1 2
8 8 8 8 8 9 9 9 7 6 6 5 5 6 5 5 8 8 7 4 3 2 2 4 4 5 6 6 3 1 2 2 3 2 1 1 2 2 2 2 1 1 2
7 7 7 6 7 8 8 8 7 6 6 5 5 6 6 5 7 9 8 4 3 2 3 5 8 8 7 7 4 4 4 3 2 1 0 1 2 1 0 1 1 0 1
6 6 6 6 6 6 6 6 6 6 6 6 6 6 6 6 6 9 9 4 4 2 3 3 5 8 8 8 6 5 4 4 4 3 3 3 3 3 2 2 2 0 0
4 4 5 6 7 7 6 6 7 7 7 7 6 6 5 5 6 7 8 7 6 4 4 4 5 7 8 8 6 6 6 5 3 4 4 4 4 4 3 3 4 3 2
3 3 4 5 6 7 7 7 7 7 6 6 5 5 5 5 6 9 8 8 9 6 5 8 7 7 5 4 5 6 5 4 4 4 4 3 3 3 4 3 4 4 3
2 3 4 5 6 7 6 6 6 7 7 6 6 6 5 5 7 7 6 5 5 5 5 6 6 6 5 5 4 3 4 5 4 4 3 3 3 3 4 4 4 3 3
4 4 5 5 5 5 6 6 6 6 5 5 5 5 5 6 7 9 6 5 5 4 3 3 3 3 4 4 4 5 5 5 5 4 4 4 4 3 3 4 4 4 4
5 5 4 3 3 4 4 4 7 6 7 9 9 7 5 6 8 10 10 11 10 9 6 5 5 6 6 5 5 5 6 5 5 5 5 4 4 4 4 4 4 4 4
5 4 4 3 3 2 3 3 2 2 5 8 9 10 9 8 9 10 9 10 11 10 7 6 6 6 6 6 6 5 5 5 4 5 5 5 4 4 4 4 5 5 4
4 3 2 2 3 3 3 3 2 2 2 2 4 7 7 8 10 10 9 7 8 8 6 6 6 6 6 6 5 5 5 5 5 5 5 5 5 4 4 4 4 4 4
4 3 3 3 2 2 2 2 3 3 3 3 2 2 3 4 8 12 10 7 6 6 6 6 6 6 5 5 5 4 5 5 5 5 5 5 5 4 4 4 4 5 5
3 3 3 2 1 2 2 2 3 3 4 4 4 4 3 3 5 6 6 6 6 6 5 5 5 6 5 5 4 4 5 5 5 5 4 4 4 4 4 5 4 4 4
2 3 1 3 1 2 3 3 3 3 4 5 4 4 5 4 4 5 5 5 5 5 5 5 5 5 5 4 4 5 5 5 4 4 4 4 4 4 4 4 4 4 4
1 3 3 2 2 3 2 2 3 3 4 5 3 2 4 4 4 4 4 4 4 4 3 4 4 3 3 4 4 5 5 5 5 5 4 4 3 3 4 4 4 5 5
4 1 2 3 4 3 2 1 2 3 4 4 3 3 3 3 3 4 4 4 4 3 4 5 4 3 5 6 8 6 6 5 5 4 4 4 4 4 4 4 5 5 5
5 2 1 3 3 3 3 2 3 2 3 3 4 4 4 3 3 4 4 3 3 4 5 5 5 5 7 8 11 11 10 8 9 9 7 4 4 4 4 4 5 5 5
5 4 1 2 3 3 3 3 3 3 3 3 3 4 4 4 4 3 3 3 4 3 4 5 5 6 9 12 11 9 8 8 9 10 10 5 4 5 4 4 4 5 6
4 4 2 2 2 2 3 3 3 4 3 3 3 4 4 4 4 3 3 3 3 3 3 4 4 6 10 11 8 7 7 8 9 11 9 4 4 5 4 3 5 5 5
Wind_Direction
21 27 32 23 16 7 340 300 287 238 206 207 202 200 190 177 178 178 192 189 212 207 204 211 206 188 183 196 200 205 206 196 227 258 235 236 230 239 229 252 254 199 204
18 24 22 15 7 352 334 317 302 276 235 221 209 201 180 184 187 182 190 186 207 217 206 199 200 184 192 193 189 215 214 204 210 247 259 232 237 236 228 241 252 239 220
18 19 17 18 9 359 347 346 332 314 292 265 217 205 186 187 185 180 182 186 196 199 192 184 185 179 191 178 193 213 217 221 203 221 254 225 232 247 245 257 267 278 274
19 16 12 18 10 360 356 353 345 342 331 305 257 189 169 173 172 181 190 185 176 174 177 166 157 150 154 155 192 205 201 219 217 225 252 245 230 242 232 252 272 270 275
26 19 12 13 14 8 1 355 354 356 351 350 17 47 70 72 48 40 19 127 144 156 156 125 104 107 103 102 94 64 59 52 241 230 246 243 239 216 229 229 250 273 276
32 23 12 17 20 16 13 11 3 0 3 6 14 28 45 51 46 40 19 9 3 135 149 136 144 141 139 135 130 119 99 80 358 311 285 267 260 225 210 211 230 270 286
34 31 22 20 17 15 16 14 7 8 13 14 20 29 54 52 37 30 20 355 336 325 236 171 157 128 144 165 177 186 188 182 185 314 325 331 327 308 213 229 223 235 250
27 27 27 27 21 18 18 13 8 10 13 16 18 24 50 48 32 22 3 325 306 299 318 17 119 117 93 90 156 188 182 183 193 202 337 5 15 6 28 161 200 256 281
28 25 26 28 24 20 17 10 8 9 11 15 25 30 39 47 28 16 356 313 303 311 47 53 66 90 78 53 34 50 111 141 167 163 124 8 0 5 29 40 26 6 306
30 29 27 31 35 25 16 9 7 9 9 19 34 35 33 37 27 16 0 332 339 9 62 78 72 86 82 62 35 36 50 24 36 74 353 329 331 6 31 357 1 329 296
33 34 29 26 39 42 22 10 12 13 16 25 29 37 41 38 28 22 16 6 358 19 65 78 79 84 77 62 52 56 45 1 7 37 46 40 42 47 34 8 18 57 287
37 42 45 47 35 32 29 20 19 16 21 26 23 25 26 34 35 21 22 22 15 37 58 75 85 82 76 65 61 53 32 15 22 41 54 44 32 23 15 7 11 18 56
39 56 53 64 61 39 29 27 24 21 23 23 23 21 14 20 22 20 21 32 41 57 67 79 85 78 75 72 62 44 26 26 42 54 57 48 32 20 13 4 3 11 27
38 62 72 62 62 55 39 32 35 24 17 15 17 16 13 27 18 5 5 27 46 59 78 81 77 65 65 73 68 48 46 46 46 56 57 43 30 25 20 12 8 3 14
35 50 76 85 85 80 70 43 39 50 33 13 5 13 16 19 7 5 16 20 21 32 42 63 59 57 57 50 52 53 48 41 40 37 43 34 24 24 19 14 13 14 24
39 35 42 78 89 104 114 94 55 55 48 45 39 39 50 32 13 22 29 31 37 45 57 61 57 54 53 51 51 46 42 36 31 37 41 36 28 24 19 18 20 23 23
54 38 37 42 61 76 106 125 126 86 56 47 43 45 44 32 29 25 30 38 43 49 59 59 56 54 51 49 47 47 40 29 29 41 42 37 29 29 30 29 24 18 16
70 66 33 53 50 58 57 70 94 112 111 91 55 45 40 35 30 29 36 49 50 51 52 53 52 52 52 50 43 39 36 30 31 37 38 34 28 30 33 28 30 19 9
42 48 34 41 56 68 63 67 73 83 94 105 109 59 25 30 39 44 47 54 56 52 51 48 43 47 49 46 37 33 40 37 31 32 32 30 26 25 24 24 25 19 22
78 51 10 349 49 82 72 75 72 70 72 71 60 35 17 43 48 45 46 50 57 55 52 53 48 45 38 31 25 30 44 46 33 28 26 24 24 22 17 21 23 24 23
142 131 245 291 17 72 70 74 87 89 85 80 70 34 20 59 66 61 57 56 57 58 54 58 60 50 38 26 21 32 45 47 37 26 24 19 18 17 14 19 18 25 27
257 177 196 170 107 81 66 93 103 109 115 117 129 101 49 61 65 64 64 67 69 66 64 69 75 69 53 44 32 34 47 46 34 20 12 6 6 18 24 26 25 36 36
299 220 148 124 117 127 225 166 124 122 128 132 132 122 103 92 84 79 78 73 66 60 59 64 68 59 53 51 55 54 52 36 10 2 3 3 11 22 31 31 36 50 47
301 292 165 151 155 176 202 172 151 149 144 145 140 131 125 112 101 92 88 84 79 71 71 73 68 71 73 65 70 65 52 32 11 359 352 353 17 26 32 36 40 45 49
290 289 245 173 174 187 190 178 169 168 161 158 151 141 139 136 130 125 119 105 97 91 82 77 73 63 76 83 78 65 44 32 21 7 351 353 34 37 41 46 52 57 54
272 278 270 210 186 195 191 185 185 177 171 166 152 143 147 146 146 147 140 137 135 127 109 94 86 84 92 92 80 62 41 29 18 7 359 6 55 41 29 48 66 67 71
Height
1497 1496 1496 1495 1496 1496 1496 1496 1497 1498 1499 1500 1502 1504 1506 1508 1510 1512 1514 1515 1517 1519 1520 1522 1523 1524 1526 1527 1528 1530 1531 1532 1533 1533 1534 1535 1536 1536 1536 1537 1537 1537 1538
1500 1499 1499 1498 1498 1498 1497 1498 1498 1499 1500 1501 1502 1504 1506 1507 1509 1511 1513 1514 1515 1517 1519 1520 1521 1522 1523 1524 1525 1527 1528 1529 1530 1530 1531 1531 1532 1532 1532 1532 1532 1533 1534
1503 1502 1501 1501 1500 1499 1499 1499 1499 1500 1500 1501 1503 1504 1506 1507 1509 1510 1512 1513 1514 1516 1517 1519 1520 1521 1522 1523 1523 1524 1525 1526 1527 1527 1527 1528 1528 1528 1528 1528 1528 1529 1530
1506 1504 1503 1502 1501 1500 1500 1500 1500 1501 1501 1502 1503 1504 1506 1507 1508 1510 1511 1513 1514 1515 1516 1518 1518 1519 1520 1521 1522 1523 1524 1524 1525 1525 1525 1525 1525 1525 1524 1524 1524 1525 1525
1509 1506 1505 1504 1503 1502 1501 1501 1501 1501 1501 1502 1503 1504 1505 1507 1508 1509 1511 1512 1514 1515 1516 1517 1517 1518 1519 1520 1521 1521 1522 1523 1523 1523 1523 1523 1523 1522 1521 1521 1521 1521 1521
1512 1509 1507 1506 1504 1503 1503 1502 1501 1501 1501 1502 1503 1504 1505 1506 1507 1509 1510 1512 1513 1515 1516 1516 1517 1517 1518 1519 1519 1520 1521 1521 1521 1522 1522 1521 1521 1520 1519 1519 1519 1518 1518
1515 1512 1510 1508 1506 1505 1504 1503 1502 1502 1502 1502 1503 1504 1505 1506 1507 1508 1509 1511 1513 1514 1515 1516 1516 1516 1517 1518 1519 1519 1520 1520 1521 1521 1520 1520 1520 1519 1518 1517 1517 1516 1516
1518 1515 1513 1510 1508 1506 1505 1503 1503 1503 1503 1503 1503 1504 1504 1505 1506 1507 1508 1510 1512 1513 1514 1515 1515 1516 1517 1517 1518 1519 1519 1520 1520 1519 1519 1519 1518 1517 1517 1516 1515 1515 1514
1521 1518 1515 1512 1510 1508 1506 1505 1505 1504 1504 1504 1504 1504 1504 1504 1505 1506 1507 1509 1510 1512 1513 1514 1514 1515 1516 1517 1517 1518 1519 1519 1519 1519 1519 1518 1517 1516 1515 1515 1514 1513 1513
1524 1521 1518 1516 1513 1511 1509 1508 1507 1506 1505 1505 1505 1504 1504 1504 1504 1505 1506 1508 1509 1510 1511 1512 1513 1514 1515 1516 1517 1518 1518 1519 1519 1518 1518 1517 1516 1515 1515 1514 1513 1513 1512
1526 1524 1521 1519 1516 1514 1512 1510 1509 1508 1507 1506 1506 1505 1505 1505 1504 1505 1505 1507 1508 1509 1510 1511 1512 1514 1515 1516 1517 1517 1518 1518 1518 1518 1517 1516 1516 1515 1514 1514 1513 1512 1512
1528 1526 1524 1521 1519 1517 1515 1513 1511 1510 1509 1508 1507 1507 1506 1506 1505 1505 1506 1507 1508 1509 1510 1511 1512 1513 1514 1515 1516 1517 1517 1517 1517 1517 1517 1517 1516 1515 1514 1514 1513 1512 1512
1530 1528 1526 1524 1522 1519 1517 1515 1513 1512 1511 1510 1509 1508 1508 1507 1506 1506 1506 1507 1508 1509 1510 1511 1512 1513 1514 1515 1516 1516 1517 1517 1517 1517 1517 1517 1516 1515 1514 1513 1513 1512 1511
1531 1530 1528 1526 1524 1522 1520 1518 1516 1514 1513 1512 1511 1510 1509 1508 1507 1507 1507 1508 1509 1510 1511 1512 1513 1514 1515 1516 1516 1517 1517 1517 1517 1517 1517 1516 1516 1515 1514 1513 1512 1511 1511
1533 1531 1530 1528 1526 1524 1522 1521 1519 1517 1516 1515 1513 1512 1511 1510 1510 1509 1509 1510 1510 1511 1512 1513 1514 1515 1516 1516 1517 1517 1517 1517 1517 1517 1517 1516 1516 1515 1514 1513 1512 1512 1511
1533 1532 1531 1530 1528 1526 1525 1524 1522 1521 1519 1518 1516 1515 1514 1513 1512 1512 1512 1512 1512 1513 1514 1514 1515 1516 1517 1517 1518 1518 1518 1518 1518 1517 1517 1516 1516 1515 1514 1513 1512 1512 1511
1534 1533 1532 1531 1530 1529 1527 1526 1525 1524 1523 1521 1519 1518 1517 1516 1515 1515 1515 1515 1515 1515 1515 1516 1517 1518 1518 1519 1519 1519 1519 1519 1518 1518 1517 1516 1516 1515 1514 1513 1512 1511 1511
1535 1534 1533 1532 1532 1531 1529 1528 1527 1526 1525 1524 1523 1521 1520 1519 1519 1518 1518 1518 1518 1518 1518 1518 1519 1519 1520 1520 1520 1520 1520 1519 1519 1518 1517 1517 1516 1515 1514 1513 1512 1512 1511
1535 1535 1534 1533 1533 1532 1531 1530 1529 1528 1528 1527 1526 1525 1524 1523 1522 1522 1521 1521 1520 1520 1520 1520 1521 1521 1521 1521 1521 1520 1520 1519 1519 1518 1517 1517 1516 1515 1515 1514 1513 1512 1511
1536 1535 1534 1534 1534 1533 1533 1532 1531 1531 1530 1529 1528 1527 1527 1526 1525 1524 1524 1523 1522 1522 1522 1522 1522 1522 1521 1521 1521 1520 1520 1519 1519 1518 1517 1517 1516 1516 1515 1514 1514 1513 1512
1536 1535 1535 1535 1535 1535 1534 1533 1533 1532 1532 1531 1530 1530 1529 1528 1527 1527 1526 1525 1524 1524 1524 1523 1523 1522 1522 1521 1521 1520 1520 1519 1518 1518 1517 1517 1516 1516 1515 1515 1514 1513 1512
1536 1536 1536 1536 1535 1535 1535 1535 1534 1534 1533 1532 1532 1531 1531 1530 1529 1528 1528 1527 1526 1525 1525 1524 1523 1523 1522 1522 1521 1520 1519 1519 1518 1518 1517 1517 1517 1516 1516 1515 1514 1514 1512
1536 1536 1536 1536 1535 1535 1535 1535 1535 1535 1534 1534 1533 1532 1532 1531 1530 1529 1529 1528 1527 1526 1526 1525 1524 1523 1522 1522 1521 1520 1519 1519 1518 1518 1517 1517 1517 1517 1516 1515 1515 1514 1513
1535 1535 1535 1535 1535 1535 1535 1535 1535 1535 1535 1534 1534 1533 1533 1532 1531 1530 1529 1529 1528 1527 1526 1525 1524 1524 1523 1522 1521 1520 1519 1519 1518 1518 1518 1517 1517 1517 1517 1516 1515 1514 1514
1533 1534 1534 1534 1534 1534 1535 1535 1535 1535 1535 1535 1534 1534 1533 1532 1531 1530 1530 1529 1528 1527 1526 1526 1525 1524 1523 1522 1521 1520 1520 1519 1518 1518 1518 1518 1517 1517 1517 1516 1516 1515 1514
1531 1532 1533 1533 1533 1533 1534 1534 1534 1534 1534 1534 1534 1533 1533 1532 1531 1531 1530 1529 1528 1527 1527 1526 1525 1524 1524 1523 1522 1521 1520 1519 1519 1519 1518 1518 1518 1518 1517 1517 1517 1516 1515